| time (UTC) | temp F | wind direction | speed knots | gust knots | rain 1hr in | rain 24hr in | rain mn in | humidity % | barometer mb |
| 20260505015018 | 53 | 236 | 1.7 | 6.1 | 0.00 | 0.00 | 0.00 | 78 | 1008.1 |
| 20260505014018 | 52 | 239 | 1.7 | 4.3 | 0.00 | 0.00 | 0.00 | 78 | 1008.1 |
| 20260505013018 | 52 | 236 | 2.6 | 7.8 | 0.00 | 0.00 | 0.00 | 79 | 1007.9 |
| 20260505012038 | 52 | 238 | 2.6 | 5.2 | 0.00 | 0.00 | 0.00 | 78 | 1007.8 |
| 20260505011039 | 52 | 238 | 2.6 | 7.0 | 0.00 | 0.00 | 0.00 | 78 | 1007.7 |
| 20260505010039 | 53 | 255 | 1.7 | 4.3 | 0.00 | 0.00 | 0.00 | 77 | 1007.6 |
| 20260505005019 | 53 | 220 | 2.6 | 8.7 | 0.00 | 0.00 | 0.00 | 76 | 1007.5 |
| 20260505004040 | 55 | 211 | 0.9 | 6.1 | 0.00 | 0.00 | 0.00 | 74 | 1007.3 |
| 20260505003019 | 59 | 228 | 0.9 | 2.6 | 0.00 | 0.00 | 0.00 | 66 | 1007.1 |
| 20260505002020 | 64 | 227 | 0.9 | 4.3 | 0.00 | 0.00 | 0.00 | 48 | 1006.9 |
| 20260505001020 | 65 | 245 | 1.7 | 4.3 | 0.00 | 0.00 | 0.00 | 41 | 1006.6 |
| 20260505000017 | 65 | 232 | 0.9 | 3.5 | 0.00 | 0.00 | 0.00 | 40 | 1006.5 |
| 20260504235017 | 66 | 241 | 1.7 | 3.5 | 0.00 | 0.00 | 0.00 | 41 | 1006.4 |
| 20260504234017 | 67 | 236 | 1.7 | 4.3 | 0.00 | 0.00 | 0.00 | 40 | 1006.3 |
| 20260504233020 | 68 | 242 | 2.6 | 6.1 | 0.00 | 0.00 | 0.00 | 39 | 1006.2 |
| 20260504232020 | 70 | 252 | 1.7 | 4.3 | 0.00 | 0.00 | 0.00 | 36 | 1006.0 |
| 20260504231018 | 71 | 255 | 3.5 | 7.8 | 0.00 | 0.00 | 0.00 | 35 | 1005.9 |
| 20260504230018 | 71 | 250 | 3.5 | 7.0 | 0.00 | 0.00 | 0.00 | 34 | 1005.8 |
| 20260504225018 | 71 | 256 | 4.3 | 8.7 | 0.00 | 0.00 | 0.00 | 35 | 1005.7 |
| 20260504224018 | 71 | 251 | 4.3 | 7.0 | 0.00 | 0.00 | 0.00 | 35 | 1005.6 |
| 20260504223038 | 71 | 251 | 5.2 | 9.6 | 0.00 | 0.00 | 0.00 | 35 | 1005.6 |
| 20260504222018 | 72 | 242 | 3.5 | 8.7 | 0.00 | 0.00 | 0.00 | 35 | 1005.5 |
| 20260504221018 | 72 | 248 | 3.5 | 7.8 | 0.00 | 0.00 | 0.00 | 33 | 1005.5 |
| 20260504220019 | 71 | 249 | 4.3 | 7.8 | 0.00 | 0.00 | 0.00 | 34 | 1005.5 |
| 20260504215019 | 69 | 256 | 4.3 | 9.6 | 0.00 | 0.00 | 0.00 | 36 | 1005.6 |
| 20260504214019 | 69 | 256 | 4.3 | 8.7 | 0.00 | 0.00 | 0.00 | 36 | 1005.6 |
| 20260504213019 | 70 | 250 | 4.3 | 9.6 | 0.00 | 0.00 | 0.00 | 36 | 1005.6 |
| 20260504212019 | 70 | 248 | 4.3 | 10.4 | 0.00 | 0.00 | 0.00 | 35 | 1005.6 |
| 20260504211016 | 69 | 253 | 4.3 | 9.6 | 0.00 | 0.00 | 0.00 | 37 | 1005.6 |
| 20260504210017 | 71 | 254 | 6.1 | 11.3 | 0.00 | 0.00 | 0.00 | 35 | 1005.5 |
| 20260504205040 | 71 | 253 | 6.1 | 11.3 | 0.00 | 0.00 | 0.00 | 34 | 1005.5 |
| 20260504204020 | 71 | 252 | 7.0 | 10.4 | 0.00 | 0.00 | 0.00 | 34 | 1005.6 |
| 20260504203020 | 71 | 263 | 7.0 | 11.3 | 0.00 | 0.00 | 0.00 | 34 | 1005.6 |
| 20260504202018 | 71 | 254 | 6.1 | 11.3 | 0.00 | 0.00 | 0.00 | 35 | 1005.5 |
| 20260504201018 | 71 | 248 | 6.1 | 12.2 | 0.00 | 0.00 | 0.00 | 34 | 1005.5 |
| 20260504200018 | 71 | 244 | 5.2 | 10.4 | 0.00 | 0.00 | 0.00 | 35 | 1005.5 |
| 20260504195018 | 71 | 248 | 5.2 | 11.3 | 0.00 | 0.00 | 0.00 | 35 | 1005.6 |
| 20260504194018 | 70 | 253 | 7.0 | 13.9 | 0.00 | 0.00 | 0.00 | 35 | 1005.6 |
| 20260504193019 | 70 | 257 | 7.0 | 12.2 | 0.00 | 0.00 | 0.00 | 34 | 1005.7 |
| 20260504192018 | 69 | 260 | 6.1 | 11.3 | 0.00 | 0.00 | 0.00 | 35 | 1005.7 |
| 20260504191038 | 69 | 263 | 6.1 | 12.2 | 0.00 | 0.00 | 0.00 | 35 | 1005.7 |
| 20260504190019 | 68 | 266 | 7.8 | 13.9 | 0.00 | 0.00 | 0.00 | 35 | 1005.8 |
| 20260504185018 | 68 | 267 | 7.8 | 13.0 | 0.00 | 0.00 | 0.00 | 35 | 1005.9 |
| 20260504184039 | 70 | 256 | 7.8 | 12.2 | 0.00 | 0.00 | 0.00 | 35 | 1005.8 |
| 20260504183016 | 70 | 259 | 7.8 | 13.0 | 0.00 | 0.00 | 0.00 | 34 | 1005.7 |
| 20260504182020 | 70 | 262 | 8.7 | 17.4 | 0.00 | 0.00 | 0.00 | 34 | 1005.7 |
| 20260504181020 | 70 | 255 | 8.7 | 13.9 | 0.00 | 0.00 | 0.00 | 34 | 1005.7 |
| 20260504180020 | 69 | 254 | 7.8 | 12.2 | 0.00 | 0.00 | 0.00 | 34 | 1005.8 |
| 20260504175020 | 69 | 253 | 7.0 | 13.0 | 0.00 | 0.00 | 0.00 | 35 | 1005.8 |
| 20260504174017 | 68 | 246 | 7.8 | 12.2 | 0.00 | 0.00 | 0.00 | 36 | 1005.8 |
| 20260504173017 | 67 | 244 | 6.1 | 11.3 | 0.00 | 0.00 | 0.00 | 38 | 1005.9 |
| 20260504172017 | 67 | 240 | 5.2 | 11.3 | 0.00 | 0.00 | 0.00 | 38 | 1006.0 |
| 20260504171041 | 68 | 243 | 7.0 | 13.0 | 0.00 | 0.00 | 0.00 | 37 | 1006.1 |
| 20260504151017 | 61 | 229 | 1.7 | 5.2 | 0.00 | 0.00 | 0.00 | 52 | 1007.4 |
| 20260504141017 | 58 | 237 | 4.3 | 9.6 | 0.00 | 0.00 | 0.00 | 55 | 1008.3 |
| 20260504081017 | 43 | 260 | 2.6 | 5.2 | 0.00 | 0.00 | 0.00 | 65 | 1009.2 |
| 20260504050020 | 38 | 12 | 0.0 | 1.7 | 0.00 | 0.00 | 0.00 | 78 | 1008.9 |
| 20260504045017 | 39 | 206 | 0.0 | 1.7 | 0.00 | 0.00 | 0.00 | 76 | 1008.9 |
| 20260504044018 | 39 | 209 | 0.0 | 1.7 | 0.00 | 0.00 | 0.00 | 75 | 1008.9 |
| 20260504043018 | 40 | 237 | 0.0 | 1.7 | 0.00 | 0.00 | 0.00 | 76 | 1008.9 |
| 20260504042018 | 40 | 234 | 0.9 | 2.6 | 0.00 | 0.00 | 0.00 | 73 | 1008.9 |
| 20260504041018 | 40 | 238 | 2.6 | 5.2 | 0.00 | 0.00 | 0.00 | 73 | 1008.8 |
| 20260504040019 | 39 | 231 | 1.7 | 3.5 | 0.00 | 0.00 | 0.00 | 76 | 1008.7 |
| 20260504035018 | 39 | 239 | 0.9 | 2.6 | 0.00 | 0.00 | 0.00 | 76 | 1008.6 |
| 20260504034019 | 39 | 236 | 0.9 | 1.7 | 0.00 | 0.00 | 0.00 | 78 | 1008.6 |
| 20260504033019 | 38 | 229 | 0.9 | 1.7 | 0.00 | 0.00 | 0.00 | 77 | 1008.5 |
| 20260504032039 | 38 | 228 | 0.9 | 2.6 | 0.00 | 0.00 | 0.00 | 81 | 1008.5 |
| 20260504031019 | 38 | 232 | 0.9 | 2.6 | 0.00 | 0.00 | 0.00 | 79 | 1008.4 |
| 20260504030019 | 38 | 216 | 0.0 | 2.6 | 0.00 | 0.00 | 0.00 | 79 | 1008.3 |
| 20260504025059 | 38 | 261 | 0.0 | 0.9 | 0.00 | 0.00 | 0.00 | 80 | 1008.3 |
| 20260504024040 | 38 | 230 | 0.9 | 1.7 | 0.00 | 0.00 | 0.00 | 80 | 1008.4 |
| 20260504023020 | 39 | 235 | 0.9 | 1.7 | 0.00 | 0.00 | 0.00 | 79 | 1008.4 |
| 20260504022020 | 40 | 243 | 0.0 | 1.7 | 0.00 | 0.00 | 0.00 | 77 | 1008.4 |
| 20260504021017 | 41 | 263 | 0.0 | 1.7 | 0.00 | 0.00 | 0.00 | 72 | 1008.4 |
| 20260504020037 | 42 | 273 | 0.0 | 1.7 | 0.00 | 0.00 | 0.00 | 66 | 1008.4 |